SKW3743 KSAN-KLAX

Flight info

Callsign SKW3743
Flight time 0h 25m
Altitude 10000
Route CWARD2 SLI
Aircraft E75L/M-L/S

Departure

Time 2026-05-07 00:12
Airport San Diego International Airport (KSAN)

Arrival

Time 2026-05-07 00:37
Airport Los Angeles International Airport (KLAX)
Time Latitude Longitude Altitude Speed Heading
2026-05-06 23:30 32.73249 -117.20333 19 ft 0 kts 223°
2026-05-06 23:58 32.73257 -117.20324 19 ft 4 kts 223°
2026-05-06 23:59 32.73277 -117.20302 19 ft 4 kts 223°
2026-05-06 23:59 32.73296 -117.20280 22 ft 4 kts 222°
2026-05-06 23:59 32.73318 -117.20263 20 ft 4 kts 194°
2026-05-06 23:59 32.73344 -117.20267 19 ft 4 kts 163°
2026-05-07 00:00 32.73370 -117.20275 21 ft 4 kts 169°
2026-05-07 00:00 32.73396 -117.20276 20 ft 4 kts 192°
2026-05-07 00:00 32.73420 -117.20264 19 ft 4 kts 221°
2026-05-07 00:00 32.73437 -117.20240 20 ft 4 kts 217°
2026-05-07 00:01 32.73456 -117.20233 22 ft 4 kts 181°
2026-05-07 00:01 32.73470 -117.20245 19 ft 4 kts 77°
2026-05-07 00:01 32.73457 -117.20256 19 ft 4 kts 16°
2026-05-07 00:01 32.73437 -117.20263 19 ft 3 kts 16°
2026-05-07 00:03 32.73438 -117.20262 20 ft 0 kts 15°
2026-05-07 00:04 32.73446 -117.20259 20 ft 4 kts 17°
2026-05-07 00:04 32.73502 -117.20240 21 ft 12 kts 16°
2026-05-07 00:04 32.73548 -117.20173 20 ft 12 kts 108°
2026-05-07 00:04 32.73521 -117.20064 20 ft 15 kts 104°
2026-05-07 00:05 32.73488 -117.19932 23 ft 18 kts 107°
2026-05-07 00:05 32.73453 -117.19782 22 ft 20 kts 105°
2026-05-07 00:05 32.73411 -117.19609 21 ft 23 kts 104°
2026-05-07 00:05 32.73371 -117.19448 22 ft 19 kts 106°
2026-05-07 00:06 32.73329 -117.19279 20 ft 23 kts 106°
2026-05-07 00:06 32.73282 -117.19084 20 ft 25 kts 107°
2026-05-07 00:06 32.73245 -117.18928 22 ft 20 kts 109°
2026-05-07 00:06 32.73203 -117.18761 22 ft 22 kts 107°
2026-05-07 00:07 32.73160 -117.18581 20 ft 25 kts 104°
2026-05-07 00:07 32.73115 -117.18393 19 ft 17 kts 105°
2026-05-07 00:07 32.73078 -117.18244 18 ft 20 kts 107°
2026-05-07 00:07 32.73041 -117.18093 17 ft 19 kts 107°
2026-05-07 00:08 32.73004 -117.17939 16 ft 20 kts 107°
2026-05-07 00:08 32.72971 -117.17796 15 ft 17 kts 107°
2026-05-07 00:08 32.72950 -117.17695 14 ft 7 kts 93°
2026-05-07 00:08 32.72951 -117.17678 15 ft 0 kts 74°
2026-05-07 00:10 32.72958 -117.17649 18 ft 8 kts 75°
2026-05-07 00:11 32.72990 -117.17569 20 ft 8 kts 36°
2026-05-07 00:11 32.73026 -117.17584 18 ft 6 kts 289°
2026-05-07 00:11 32.73051 -117.17699 16 ft 43 kts 285°
2026-05-07 00:11 32.73236 -117.18456 22 ft 144 kts 286°
2026-05-07 00:12 32.73564 -117.19730 914 ft 168 kts 287°
2026-05-07 00:12 32.74015 -117.21120 1945 ft 184 kts 296°
2026-05-07 00:12 32.74665 -117.22473 2614 ft 190 kts 300°
2026-05-07 00:12 32.75418 -117.23927 2876 ft 228 kts 302°
2026-05-07 00:13 32.76305 -117.25496 2781 ft 230 kts 304°
2026-05-07 00:13 32.77237 -117.27114 3273 ft 248 kts 304°
2026-05-07 00:13 32.78231 -117.28849 4171 ft 259 kts 303°
2026-05-07 00:13 32.79238 -117.30643 5151 ft 263 kts 304°
2026-05-07 00:14 32.80331 -117.32412 6071 ft 268 kts 307°
2026-05-07 00:14 32.81470 -117.34186 6939 ft 271 kts 307°
2026-05-07 00:14 32.82628 -117.35979 7731 ft 275 kts 307°
2026-05-07 00:14 32.83803 -117.37798 8503 ft 279 kts 307°
2026-05-07 00:15 32.84987 -117.39635 9265 ft 282 kts 307°
2026-05-07 00:15 32.86178 -117.41485 9692 ft 277 kts 307°
2026-05-07 00:15 32.87370 -117.43336 9812 ft 284 kts 307°
2026-05-07 00:15 32.88581 -117.45216 9881 ft 287 kts 307°
2026-05-07 00:16 32.89797 -117.47106 9913 ft 287 kts 307°
2026-05-07 00:16 32.91010 -117.48993 9927 ft 287 kts 307°
2026-05-07 00:16 32.92264 -117.50944 9954 ft 310 kts 307°
2026-05-07 00:16 32.93630 -117.53067 9967 ft 334 kts 307°
2026-05-07 00:17 32.95038 -117.55260 9965 ft 338 kts 307°
2026-05-07 00:17 32.96464 -117.57483 9953 ft 337 kts 307°
2026-05-07 00:17 32.97887 -117.59703 9937 ft 337 kts 307°
2026-05-07 00:17 32.99309 -117.61922 9924 ft 337 kts 307°
2026-05-07 00:18 33.00730 -117.64143 9925 ft 337 kts 307°
2026-05-07 00:18 33.02149 -117.66359 9933 ft 337 kts 307°
2026-05-07 00:18 33.03554 -117.68556 9932 ft 337 kts 307°
2026-05-07 00:18 33.05042 -117.70716 9925 ft 337 kts 310°
2026-05-07 00:19 33.06602 -117.72798 9927 ft 337 kts 312°
2026-05-07 00:19 33.08246 -117.74792 9931 ft 337 kts 318°
2026-05-07 00:19 33.10009 -117.76634 9931 ft 337 kts 319°
2026-05-07 00:19 33.11787 -117.78456 9927 ft 337 kts 319°
2026-05-07 00:20 33.13572 -117.80273 9927 ft 337 kts 319°
2026-05-07 00:20 33.15354 -117.82086 9929 ft 337 kts 319°
2026-05-07 00:20 33.17221 -117.83791 9926 ft 337 kts 329°
2026-05-07 00:20 33.19318 -117.85039 9929 ft 337 kts 336°
2026-05-07 00:21 33.21475 -117.86060 9929 ft 338 kts 339°
2026-05-07 00:21 33.23687 -117.86997 9925 ft 338 kts 341°
2026-05-07 00:21 33.25943 -117.87783 9927 ft 338 kts 347°
2026-05-07 00:21 33.28237 -117.88389 9932 ft 338 kts 347°
2026-05-07 00:22 33.30540 -117.88970 9931 ft 338 kts 348°
2026-05-07 00:22 33.32846 -117.89544 9928 ft 338 kts 348°
2026-05-07 00:22 33.35149 -117.90111 9930 ft 338 kts 348°
2026-05-07 00:22 33.37453 -117.90671 9930 ft 338 kts 347°
2026-05-07 00:23 33.39719 -117.91416 9929 ft 338 kts 343°
2026-05-07 00:23 33.41974 -117.92216 9842 ft 348 kts 345°
2026-05-07 00:23 33.44208 -117.93041 9898 ft 328 kts 346°
2026-05-07 00:23 33.46399 -117.93822 9763 ft 330 kts 346°
2026-05-07 00:24 33.48565 -117.94609 9379 ft 328 kts 346°
2026-05-07 00:24 33.50738 -117.95403 8992 ft 322 kts 346°
2026-05-07 00:24 33.52835 -117.96170 8597 ft 309 kts 346°
2026-05-07 00:24 33.54855 -117.96905 8217 ft 298 kts 346°
2026-05-07 00:25 33.56835 -117.97625 7819 ft 289 kts 346°
2026-05-07 00:25 33.58715 -117.98312 7443 ft 282 kts 345°
2026-05-07 00:25 33.60578 -117.98990 7129 ft 277 kts 345°
2026-05-07 00:25 33.62405 -117.99658 7040 ft 269 kts 345°
2026-05-07 00:26 33.64195 -118.00309 7005 ft 269 kts 345°
2026-05-07 00:26 33.65974 -118.00960 6990 ft 261 kts 345°
2026-05-07 00:26 33.67645 -118.01572 6985 ft 250 kts 345°
2026-05-07 00:26 33.69314 -118.02179 6996 ft 252 kts 346°
2026-05-07 00:27 33.70996 -118.02791 6999 ft 254 kts 345°
2026-05-07 00:27 33.72689 -118.03411 6988 ft 253 kts 346°
2026-05-07 00:27 33.74375 -118.04027 6989 ft 253 kts 345°
2026-05-07 00:27 33.76054 -118.04668 6959 ft 253 kts 342°
2026-05-07 00:28 33.77720 -118.05387 6955 ft 253 kts 344°
2026-05-07 00:28 33.79402 -118.06018 6949 ft 253 kts 346°
2026-05-07 00:28 33.81100 -118.06612 6961 ft 253 kts 346°
2026-05-07 00:28 33.82797 -118.07190 6956 ft 255 kts 346°
2026-05-07 00:29 33.84499 -118.07750 6646 ft 257 kts 347°
2026-05-07 00:29 33.86234 -118.08320 6325 ft 253 kts 346°
2026-05-07 00:30 33.91290 -118.09891 5387 ft 248 kts 347°
2026-05-07 00:30 33.92967 -118.10388 5123 ft 245 kts 346°
2026-05-07 00:30 33.94571 -118.10969 5021 ft 238 kts 334°
2026-05-07 00:30 33.95433 -118.11764 4981 ft 234 kts 310°
2026-05-07 00:31 33.96228 -118.13458 5001 ft 233 kts 295°
2026-05-07 00:31 33.96853 -118.15282 5024 ft 238 kts 292°
2026-05-07 00:31 33.97481 -118.17144 4703 ft 238 kts 298°
2026-05-07 00:31 33.98438 -118.18722 4275 ft 229 kts 302°
2026-05-07 00:32 33.99149 -118.20467 3874 ft 231 kts 295°
2026-05-07 00:32 33.99794 -118.22223 3455 ft 227 kts 303°
2026-05-07 00:32 34.00863 -118.23594 3042 ft 224 kts 317°
2026-05-07 00:32 34.01774 -118.25071 2631 ft 223 kts 289°
2026-05-07 00:33 34.01765 -118.26878 2523 ft 217 kts 249°
2026-05-07 00:33 34.00886 -118.28156 2542 ft 190 kts 212°
2026-05-07 00:33 33.99711 -118.28828 2572 ft 186 kts 204°
2026-05-07 00:33 33.98507 -118.29394 2500 ft 186 kts 202°
2026-05-07 00:34 33.97296 -118.29929 2441 ft 186 kts 203°
2026-05-07 00:34 33.96072 -118.30455 2098 ft 185 kts 201°
2026-05-07 00:34 33.95062 -118.31260 1852 ft 172 kts 242°
2026-05-07 00:34 33.95086 -118.32656 1643 ft 173 kts 283°
2026-05-07 00:35 33.95357 -118.34025 1517 ft 162 kts 283°
2026-05-07 00:35 33.95579 -118.35325 1165 ft 154 kts 276°
2026-05-07 00:35 33.95608 -118.36561 803 ft 148 kts 265°
2026-05-07 00:35 33.95462 -118.37836 558 ft 150 kts 261°
2026-05-07 00:36 33.95340 -118.38986 351 ft 135 kts 261°
2026-05-07 00:36 33.95230 -118.40071 155 ft 129 kts 262°
2026-05-07 00:36 33.95124 -118.41043 90 ft 101 kts 261°
2026-05-07 00:36 33.95061 -118.41659 94 ft 51 kts 265°
2026-05-07 00:37 33.95023 -118.42004 91 ft 39 kts 254°
2026-05-07 00:37 33.94928 -118.42208 93 ft 22 kts 224°
2026-05-07 00:37 33.94874 -118.42265 93 ft 0 kts 205°
2026-05-07 00:38 33.94873 -118.42266 93 ft 2 kts 202°
2026-05-07 00:38 33.94808 -118.42279 94 ft 14 kts 187°
2026-05-07 00:38 33.94697 -118.42270 92 ft 8 kts 155°
2026-05-07 00:38 33.94694 -118.42268 92 ft 0 kts 145°
2026-05-07 00:39 33.94689 -118.42265 94 ft 3 kts 165°
2026-05-07 00:39 33.94616 -118.42237 93 ft 14 kts 126°
2026-05-07 00:39 33.94614 -118.42143 91 ft 11 kts 86°
2026-05-07 00:39 33.94623 -118.42035 91 ft 15 kts 83°
2026-05-07 00:40 33.94630 -118.41893 91 ft 18 kts 85°
2026-05-07 00:40 33.94641 -118.41771 91 ft 13 kts 83°
2026-05-07 00:40 33.94653 -118.41650 91 ft 16 kts 83°
2026-05-07 00:40 33.94667 -118.41508 92 ft 13 kts 83°
2026-05-07 00:41 33.94680 -118.41386 91 ft 16 kts 83°
2026-05-07 00:41 33.94696 -118.41246 91 ft 18 kts 76°
2026-05-07 00:41 33.94727 -118.41119 92 ft 15 kts 82°
2026-05-07 00:41 33.94739 -118.40978 91 ft 16 kts 84°
2026-05-07 00:42 33.94703 -118.40914 91 ft 12 kts 166°
2026-05-07 00:42 33.94639 -118.40899 91 ft 6 kts 185°
2026-05-07 00:42 33.94573 -118.40877 92 ft 13 kts 160°
2026-05-07 00:42 33.94553 -118.40854 92 ft 3 kts 86°
2026-05-07 00:43 33.94555 -118.40824 92 ft 0 kts 89°